Location: Waco, TX
(31.5480°N, 97.1670°W)
Time: 17:45:33
(UTC-06:00)

ISS - Pass Details

Date: 16 January 2019
Orbit: 404 x 410 km, 51.6° (Epoch: 24 January)

Event Time Altitude Azimuth Distance (km) Brightness Sun altitude
Rises 05:27:01 0° 310° (NW) 2,337 - -25.5°
Reaches altitude 10° 05:29:09 10° 305° (NW) 1,473 - -25.1°
Maximum altitude 05:32:21 51° 228° (SW) 521 - -24.4°
Exits shadow 05:34:14 22° 160° (SSE) 957 -1.7 -24.0°
Drops below altitude 10° 05:35:33 10° 151° (SSE) 1,462 -0.5 -23.7°
Sets 05:37:39 0° 146° (SSE) 2,317 0.7 -23.3°
